Regional Weather Roundup
Issued by NWS

Home | Current Version | Previous Version | Text Only | Print | Product List | Glossary Off
Versions: 1 2 3 4 5 6 7 8 9 10 11 12 13 14 15 16 17 18 19 20 21 22 23 24 25 26 27 28 29 30 31 32 33 34 35 36 37 38 39 40 41 42 43 44 45 46 47 48 49 50

000
ASUS45 KBOU 190207
RWRCO

WEATHER ROUNDUP FOR COLORADO
NATIONAL WEATHER SERVICE DENVER/BOULDER CO
700 PM MST SAT FEB 18 2017

NOTE: "FAIR" INDICATES FEW OR NO CLOUDS BELOW 12000 FEET WITH NO
SIGNIFICANT WEATHER AND/OR OBSTRUCTIONS TO VISIBILITY.

COZ001>005-013-030-031-190300-
...NORTHWEST COLORADO...

CITY           SKY/WX    TMP DP  RH WIND       PRES   REMARKS
CRAIG          CLOUDY    34  30  85 CALM      29.78R
HAYDEN         FAIR      37  28  70 SW5       29.78R
MEEKER         CLOUDY    40  33  76 CALM      29.76R
MOUNT WERNER   NOT AVBL
STEAMBOAT SPGS CLOUDY    36  31  83 SW5       29.76R
WALDEN         NOT AVBL
$$

COZ006>008-011-190300-
...WEST CENTRAL VALLEYS...

CITY           SKY/WX    TMP DP  RH WIND       PRES   REMARKS
GRAND JUNCTION FAIR      43  39  86 N7        29.73S
MONTROSE       FAIR      44  34  67 W8        29.76R
EAGLE          CLOUDY    46  30  53 W9        29.75R
RIFLE          CLOUDY    47  34  60 CALM      29.74R
DELTA          FAIR      46  37  72 CALM      29.72R
NUCLA          FAIR      45  34  65 CALM      29.78R
$$

COZ017>023-064>068-190300-
...SOUTHWEST COLORADO...

CITY           SKY/WX    TMP DP  RH WIND       PRES   REMARKS
DURANGO        FAIR      45  28  51 E7        29.77R
CORTEZ         FAIR      51  29  42 SE9       29.72R
PAGOSA SPRINGS CLOUDY    44  28  54 CALM      29.83R
TELLURIDE      FAIR      42  17  36 S17G28    29.81R
WOLF CREEK PAS LGT SNOW  25  25 100 S15G23    29.97R WCI  12
$$

COZ009-010-012-014-032>034-037-058>063-190300-
...CENTRAL COLORADO...

CITY           SKY/WX    TMP DP  RH WIND       PRES   REMARKS
ASPEN          FAIR      39  29  67 NW3       29.77R
BUENA VISTA    FAIR      42  27  55 SE3       29.78S
COPPER MTN     FAIR      34  14  44 MISG      29.88R
BERTHOUD PASS  FAIR      28  18  64 S12G28    29.90R WCI  18
COTTONWOOD PAS FAIR      41  21  45 CALM      29.84R
GUNNISON       FAIR      30  26  85 NE7       29.80R WCI  23
KREMMLING      MOCLDY    41  32  70 S5        29.76R
LEADVILLE      FAIR      31  22  69 CALM      29.81R
MONARCH PASS   FAIR      30  21  69 S20G26    30.01S WCI  18
SALIDA         FAIR      48  27  44 SW5       29.83S
SUNLIGHT       NOT AVBL
WILKERSON PASS FAIR      32  21  64 SW10G17   29.92S WCI  24
$$

COZ069>075-190300-
...SAN LUIS VALLEY/SANGRE DE CRISTO MOUNTAINS...

CITY           SKY/WX    TMP DP  RH WIND       PRES   REMARKS
ALAMOSA        FAIR      37  32  82 SW5       29.78R
LA VETA PASS   FAIR      34  27  75 MISG      29.88S
SAGUACHE       FAIR      36  32  87 NE3       29.79R
$$

COZ035-036-038>040-190300-
...NORTHERN COLORADO FRONT RANGE...

CITY           SKY/WX    TMP DP  RH WIND       PRES   REMARKS
DENVER INTL AP MOCLDY    56  22  26 S30G37    29.67R
DMNS CITY PARK   N/A     52  20  29 NE2G10    29.66S
AURORA         MOCLDY    54  22  29 S25G31    29.67R
FRONT RANGE AP MOCLDY    55  21  26 SE18G28   29.67R
ERIE MUNI ARPT FAIR      42  21  44 SW3       29.65R
BOULDER MUN AP FAIR      52  23  32 CALM      29.65S
CENTENNIAL     MOCLDY    51  23  33 S17       29.68R
BROOMFIELD     MOCLDY    50  19  29 CALM      29.67R
FORT COLLINS   FAIR      48  22  35 N7        29.65R
LONGMONT       FAIR      46  23  40 W6        29.67R
$$

COZ041-046-047-076>085-087-088-190300-
...PIKES PEAK/PALMER DIVIDE AND SOUTHERN FOOTHILLS...

CITY           SKY/WX    TMP DP  RH WIND       PRES   REMARKS
COLO. SPRINGS  MOCLDY    48  20  32 E3        29.75F
A. F. ACADEMY  FAIR      47  20  34 CALM      29.74S
SCHRIEVER AFB  FAIR      46  18  33 NE3       29.74F
ELLICOTT       FAIR     N/A N/A N/A SE14      29.71F
FALCON         FAIR      42  19  40 S10       29.77F
FORT CARSON    FAIR      52  21  30 W5        29.72F
LIMON          FAIR      43  19  38 SE9       29.73R
MONUMENT HILL  FAIR      43  21  42 S14       29.77S
TRINIDAD       FAIR      55  19  24 E6        29.74R
$$

COZ042>045-048>051-090-091-190300-
...NORTHEAST COLORADO...

CITY           SKY/WX    TMP DP  RH WIND       PRES   REMARKS
GREELEY ARPT   FAIR      53  23  31 SE13      29.64S
AKRON          FAIR      50  20  30 SE12      29.70S
BURLINGTON     FAIR      49  23  36 S14       29.74R
WRAY           NOT AVBL
STERLING       FAIR      54  25  32 S10       29.67R
HOLYOKE        FAIR      48  30  49 SE9       29.72R
FORT MORGAN    FAIR      53  19  25 SE14      29.68R
$$

COZ086-089-092>099-190300-
...SOUTHEAST COLORADO...

CITY           SKY/WX    TMP DP  RH WIND       PRES   REMARKS
PUEBLO         FAIR      54  23  30 CALM      29.66S
LA JUNTA       FAIR      59  22  24 SE14      29.68R
LAMAR          FAIR      56  24  29 S12       29.69R
SPRINGFIELD      N/A     51  27  39 S15       29.75R
$$



USA.gov is the U.S. government's official web portal to all federal, state and local government web resources and services.